User: anonymous   Login
Location: Demmingen
(48.6757°N, 10.4375°E)
Time: 13:11:16
(UTC+00:00)
Language:

IRAS Rocket - Orbit

View from above orbital plane
View from above orbital plane
View from above satellite
View from above satellite

Ground track
Ground track

The orbit data is extracted from the following two-line orbital elements,

1 13778U 83004B   24198.87904855  .00000272  00000-0  18636-3 0  9999
2 13778 100.0580 157.2555 0021324  19.9634 340.2362 14.09378415131069
Epoch (UTC): 16 July 2024 21:05:49
Eccentricity: 0.0021324
inclination: 100.0580°
perigee height: 846 km
apogee height: 877 km
right ascension of ascending node: 157.2555°
argument of perigee: 19.9634°
revolutions per day: 14.09378415
mean anomaly at epoch: 340.2362°
orbit number at epoch: 13106

The dashed part of the orbit path shows where the satellite is in the earth's shadow,  

DLR